Regional Weather Roundup
Issued by NWS Burlington, VT

Current Version | Previous Version | Graphics & Text | Print | Product List | Glossary Off
Versions: 1 2 3 4 5 6 7 8 9 10 11 12 13 14 15 16 17 18 19 20 21 22 23 24 25 26 27 28 29 30 31 32 33 34 35 36 37 38 39 40 41 42 43 44 45 46 47 48 49 50

000
ASUS41 KBTV 171510
RWRBTV
VERMONT REGIONAL WEATHER ROUNDUP
NATIONAL WEATHER SERVICE BURLINGTON VT
1100 AM EDT TUE OCT 17 2017

NOTE: "FAIR" INDICATES FEW OR NO CLOUDS BELOW 12,000 FEET WITH NO
SIGNIFICANT WEATHER AND/OR OBSTRUCTIONS TO VISIBILITY.

* THESE REPORTS ARE NOT UNDER NWS QUALITY CONTROL AND/OR DO NOT
  REPORT WEATHER SUCH AS PRECIPITATION AND FOG.

VTZ001>019-171600-
_____VERMONT_____


CITY           SKY/WX    TMP DP  RH WIND       PRES   REMARKS
BURLINGTON     PTSUNNY   46  31  55 S12       30.27F
MONTPELIER     SUNNY     44  32  62 S5        30.29F
MORRISVILLE    CLOUDY    44  31  60 CALM      30.26F
ST. JOHNSBURY*   N/A     43  32  65 MISG      30.26F
LYNDONVILLE*   FAIR      40  30  65 CALM      30.28R
MIDDLEBURY*    FAIR      45  30  56 SW10      30.29F
RUTLAND*       SUNNY     43  29  57 SE3       30.30S
SPRINGFIELD    SUNNY     45  27  49 CALM      30.29F
HIGHGATE*      CLOUDY    43  33  66 S6        30.26F
NEWPORT*       CLOUDY    42  32  66 SE8       30.25F
BENNINGTON     SUNNY     44  30  57 CALM      30.31S
SUTTON*          N/A     41 N/A N/A MISG        N/A

_____LAKE CHAMPLAIN_____


CITY           SKY/WX    TMP DP  RH WIND       PRES   REMARKS
BURTON ISLAND*   N/A     45  36  70 S16G22      N/A
COLCHESTER RF*   N/A     45  36  70 S23         N/A
DIAMOND ISL*     N/A     45  32  61 S15         N/A

$$

NYZ007-026>031-035-052-083-087-171600-
_____NORTHERN NEW YORK_____


CITY           SKY/WX    TMP DP  RH WIND       PRES   REMARKS
PLATTSBURGH    CLOUDY    47  34  60 SE9       30.26F
SARANAC LAKE   MOSUNNY   42  30  62 SW8       30.21F
MASSENA        CLOUDY    48  37  65 SW15      30.22F
OGDENSBURG*    FAIR      50  38  63 SW15G24   30.20F
WATERTOWN      SUNNY     50  35  56 S13G21    30.24F
FT DRUM        SUNNY     50  30  46 SW12      30.23F
ALBANY         MOSUNNY   47  32  56 CALM      30.34S
GLENS FALLS    SUNNY     45  29  53 E5        30.31F

$$
NHZ002-005-011-171600-
_____NEW HAMPSHIRE_____


CITY           SKY/WX    TMP DP  RH WIND       PRES   REMARKS
LEBANON        SUNNY     45  29  53 CALM      30.28F
KEENE          SUNNY     49  34  56 NE6       30.30F
MT WASHINGTON  MOSUNNY   23   7  50 NW35        N/A  WCI   4
PLYMOUTH       FAIR      47  28  47 W6        30.26F
WHITEFIELD     SUNNY     44  27  51 CALM      30.26F

$$

_____REGIONAL QUEBEC LOCATIONS_____


CITY           SKY/WX    TMP DP  RH WIND       PRES   REMARKS
MONTREAL       CLOUDY    45  32  61 S15       30.21F
QUEBEC CITY    CLOUDY    39  32  75 SW13      30.19F WCI  32
SHERBROOKE     MOSUNNY   43  30  61 S9        30.22F

_____REGIONAL ONTARIO LOCATIONS_____


CITY           SKY/WX    TMP DP  RH WIND       PRES   REMARKS
OTTAWA         MOSUNNY   50  37  62 S17G26    30.15F

______KEY______
VSB  - VISIBILITY IN MILES
WCI  - WIND CHILL INDEX
HX   - HEAT INDEX
$$
NNNN



USA.gov is the U.S. government's official web portal to all federal, state and local government web resources and services.